Regional Weather Roundup
Issued by NWS

Home | Current Version | Previous Version | Text Only | Print | Product List | Glossary On
Versions: 1 2 3 4 5 6 7 8 9 10 11 12 13 14 15 16 17 18 19 20 21 22 23 24 25 26 27 28 29 30 31 32 33 34 35 36 37 38 39 40 41 42 43 44 45 46 47 48 49 50
000
ASUS44 KJAN 201110
RWRMS

MISSISSIPPI HOURLY WEATHER ROUNDUP
NATIONAL WEATHER SERVICE JACKSON MS
600 AM CDT MON OCT 20 2014

NOTE: "FAIR: INDICATES FEW OR NO CLOUDS BELOW 12,000 FEET WITH NO
SIGNIFICANT WEATHER AND/OR OBSTRUCTIONS TO VISIBILITY.

MSZ001>002-007>008-010>013-018>021-025>028-034>036-201200-
NORTHWEST MISSISSIPPI

CITY           SKY/WX    TMP DP  RH WIND       PRES   REMARKS
CLARKSDALE       N/A     46  46 100 CALM      30.09R VSB 1/2
CLEVELAND      FAIR      48  48  99 CALM      30.07R
GREENWOOD      CLEAR     46  44  93 NE3       30.08R
GREENVILLE     FOG       47  46  97 CALM      30.07S VSB 3/4
GRENADA          N/A    N/A N/A N/A MISG        N/A
OLIVE BRANCH   CLEAR     45  45 100 CALM      30.08S
OXFORD         FAIR      41  39  93 CALM      30.10R
TUNICA         FOG       43  43 100 CALM      30.09R VSB 1/2
$$

MSZ003>006-009-014>017-022>024-029>033-037>039-201200-
NORTHEAST MISSISSIPPI

CITY           SKY/WX    TMP DP  RH WIND       PRES   REMARKS
COLUMBUS AFB   CLEAR     43  43 100 CALM      30.09R FOG
CORINTH          N/A     41  41 100 CALM        N/A
GOLDN TRIANGLE MOCLDY    43  37  81 CALM      30.08S FOG
TUPELO         CLEAR     44  42  93 NE3       30.08S
$$

MSZ040-058-201200-
CENTRAL MISSISSIPPI

CITY           SKY/WX    TMP DP  RH WIND       PRES   REMARKS
JACKSON INTL   CLEAR     45  43  93 CALM      30.07S
JACKSON HAWKNS CLEAR     48  45  89 CALM      30.07S
MERIDIAN KEY   CLEAR     43  41  93 CALM      30.09R
MERIDIAN NAS   CLEAR     44  41  89 CALM      30.09R
RAYMOND        FAIR      43  37  81 CALM      30.08R HAZE
VICKSBURG      CLEAR     42  40  92 CALM      30.08S
$$

MSZ059>079-201200-
SOUTH MISSISSIPPI

CITY           SKY/WX    TMP DP  RH WIND       PRES   REMARKS
BROOKHAVEN     FAIR      43  43 100 CALM      30.08S
COLUMBIA         N/A    N/A N/A N/A MISG        N/A
HATTIESBURG    CLEAR     46  43  89 CALM      30.08R
MCCOMB         CLEAR     49  45  86 CALM      30.06R
NATCHEZ        CLEAR     46  43  87 CALM      30.07R
PINE BELT      CLEAR     45  39  81 CALM      30.08R
$$

MSZ080>082-201200-
COASTAL MISSISSIPPI

CITY           SKY/WX    TMP DP  RH WIND       PRES   REMARKS
BILOXI         CLEAR     54  49  83 NE5       30.04R
PASCAGOULA     CLEAR     46  45  96 CALM      30.05R
GULFPORT       CLEAR     52  48  86 N3        30.03S
$$


USA.gov is the U.S. government's official web portal to all federal, state and local government web resources and services.